{"data":{"norad_id":56548,"intl_designator":"2023-065AX","name":"STARLINK-6244","alt_names":[],"object_type":"PAYLOAD","status":"ACTIVE","operator":null,"country":"US","launch_date":"2023-05-14","launch_site_code":"AFETR","launch_vehicle":null,"mission":null,"orbit_class":"UNKNOWN","rcs_meters":null,"size_class":null,"mass_kg":null,"dimensions":null,"purposes":["comms"],"wikipedia_slug":null,"has_3d_model":false,"image_url":null,"decayed_at":null,"tle_current":{"epoch":"2026-09-20T04:18:33.489792Z","epoch_age_seconds":142489,"freshness":"FRESH","line1":"1 56548U 23065AX  26263.17955428  .00000686  00000+0  34466-4 0  9990","line2":"2 56548  43.0024 205.4832 0001298 269.5070  90.5633 15.27575108186211","mean_motion":15.27575108,"eccentricity":0.0001298,"inclination_deg":43.0024,"raan_deg":205.4832,"arg_perigee_deg":269.507,"mean_anomaly_deg":90.5633,"bstar":3.4466e-5,"rev_number":18621,"period_min":94.267050599256,"perigee_km":482.17316063,"apogee_km":483.95432834327,"semimajor_km":6861.2007444866,"source":"CELESTRAK","updated_at":"2026-09-21T09:00:33.478133Z"}}}